Location: Sweet Grass
(48.9965°N, 111.9649°W)
Time: 09:19:17
(UTC+00:00)

N. Korean satellite - Pass Details

Date: 06 December 2022
Orbit: 407 x 444 km, 97.3° (Epoch: 28 January)

Event Time Altitude Azimuth Distance (km) Brightness Sun altitude
Rises 00:16:20 0° 183° (S) 2,458 10.6 -7.2°
Maximum altitude 00:21:41 39° 262° (W) 710 8.1 -8.0°
Drops below altitude 10° 00:25:00 10° 333° (NNW) 1,633 9.3 -8.5°
Sets 00:27:10 0° 341° (NNW) 2,519 10.1 -8.8°
